Time,TemperatureF,DewpointF,PressureIn,WindDirection,WindDirectionDegrees,WindSpeedMPH,WindSpeedGustMPH,Humidity,HourlyPrecipIn,Conditions,Clouds,dailyrainin,SolarRadiationWatts/m^2,SoftwareType,DateUTC
2013-12-08 00:03:00,24.0,18.0,-100.00,ESE,107,1.0,5.0,79,0.00,,,0.00,0.000000,,2013-12-08 05:03:00,
2013-12-08 00:13:00,24.0,18.0,-100.00,ESE,107,1.0,5.0,79,0.00,,,0.00,0.000000,,2013-12-08 05:13:00,
2013-12-08 00:43:00,23.0,20.0,-100.00,ESE,119,0.0,4.0,88,0.00,,,0.00,0.000000,,2013-12-08 05:43:00,
2013-12-08 00:53:00,23.0,20.0,-100.00,ESE,119,0.0,4.0,88,0.00,,,0.00,0.000000,,2013-12-08 05:53:00,
2013-12-08 01:02:00,23.0,20.0,-100.00,ESE,119,0.0,4.0,88,0.00,,,0.00,0.000000,,2013-12-08 06:02:00,
2013-12-08 01:12:00,23.0,20.0,-100.00,ESE,119,0.0,4.0,88,0.00,,,0.00,0.000000,,2013-12-08 06:12:00,
2013-12-08 01:42:00,22.0,19.0,-100.00,ENE,58,2.0,3.0,89,0.00,,,0.00,0.000000,,2013-12-08 06:42:00,
2013-12-08 01:52:00,22.0,19.0,-100.00,ENE,58,2.0,3.0,89,0.00,,,0.00,0.000000,,2013-12-08 06:52:00,
2013-12-08 02:02:00,22.0,19.0,-100.00,ENE,58,2.0,3.0,89,0.00,,,0.00,0.000000,,2013-12-08 07:02:00,
2013-12-08 02:12:00,22.0,19.0,-100.00,ENE,58,2.0,3.0,89,0.00,,,0.00,0.000000,,2013-12-08 07:12:00,
2013-12-08 02:42:00,20.0,18.0,-100.00,NE,52,2.0,4.0,93,0.00,,,0.00,0.000000,,2013-12-08 07:42:00,
2013-12-08 02:53:00,20.0,18.0,-100.00,NE,52,2.0,4.0,93,0.00,,,0.00,0.000000,,2013-12-08 07:53:00,
2013-12-08 03:02:00,20.0,18.0,-100.00,NE,52,2.0,4.0,93,0.00,,,0.00,0.000000,,2013-12-08 08:02:00,
2013-12-08 03:12:00,20.0,18.0,-100.00,NE,52,2.0,4.0,93,0.00,,,0.00,0.000000,,2013-12-08 08:12:00,
2013-12-08 03:43:00,21.0,17.0,-100.00,NE,49,2.0,4.0,86,0.00,,,0.00,0.000000,,2013-12-08 08:43:00,
2013-12-08 03:52:00,21.0,17.0,-100.00,NE,49,2.0,4.0,86,0.00,,,0.00,0.000000,,2013-12-08 08:52:00,
2013-12-08 04:02:00,21.0,17.0,-100.00,NE,49,2.0,4.0,86,0.00,,,0.00,0.000000,,2013-12-08 09:02:00,
2013-12-08 04:11:00,21.0,17.0,-100.00,NE,49,2.0,4.0,86,0.00,,,0.00,0.000000,,2013-12-08 09:11:00,
2013-12-08 04:43:00,22.0,18.0,-100.00,NE,40,2.0,4.0,84,0.00,,,0.00,0.000000,,2013-12-08 09:43:00,
2013-12-08 04:54:00,22.0,18.0,-100.00,NE,40,2.0,4.0,84,0.00,,,0.00,0.000000,,2013-12-08 09:54:00,
2013-12-08 05:03:00,22.0,18.0,-100.00,NE,40,2.0,4.0,84,0.00,,,0.00,0.000000,,2013-12-08 10:03:00,
2013-12-08 05:12:00,22.0,18.0,-100.00,NE,40,2.0,4.0,84,0.00,,,0.00,0.000000,,2013-12-08 10:12:00,
2013-12-08 05:43:00,23.0,18.0,-100.00,NNE,26,2.0,4.0,82,0.00,,,0.00,0.000000,,2013-12-08 10:43:00,
2013-12-08 05:53:00,23.0,18.0,-100.00,NNE,26,2.0,4.0,82,0.00,,,0.00,0.000000,,2013-12-08 10:53:00,
2013-12-08 06:03:00,23.0,18.0,-100.00,NNE,26,2.0,4.0,82,0.00,,,0.00,0.000000,,2013-12-08 11:03:00,
2013-12-08 06:12:00,23.0,18.0,-100.00,NNE,26,2.0,4.0,82,0.00,,,0.00,0.000000,,2013-12-08 11:12:00,
2013-12-08 06:43:00,22.0,15.0,-100.00,NNW,347,1.0,4.0,75,0.00,,,0.00,0.000000,,2013-12-08 11:43:00,
2013-12-08 06:52:00,22.0,15.0,-100.00,NNW,347,1.0,4.0,75,0.00,,,0.00,0.000000,,2013-12-08 11:52:00,
2013-12-08 07:02:00,22.0,15.0,-100.00,NNW,347,1.0,4.0,75,0.00,,,0.00,0.000000,,2013-12-08 12:02:00,
2013-12-08 07:12:00,22.0,15.0,-100.00,NNW,347,1.0,4.0,75,0.00,,,0.00,0.000000,,2013-12-08 12:12:00,
2013-12-08 07:42:00,23.0,18.0,-100.00,NE,39,2.0,4.0,80,0.00,,,0.00,0.000000,,2013-12-08 12:42:00,
2013-12-08 07:53:00,23.0,18.0,-100.00,NE,39,2.0,4.0,80,0.00,,,0.00,0.000000,,2013-12-08 12:53:00,
2013-12-08 08:01:00,23.0,18.0,-100.00,NE,39,2.0,4.0,80,0.00,,,0.00,0.000000,,2013-12-08 13:01:00,
2013-12-08 08:11:00,23.0,18.0,-100.00,NE,39,2.0,4.0,80,0.00,,,0.00,0.000000,,2013-12-08 13:11:00,
2013-12-08 08:42:00,23.0,16.0,-100.00,NW,309,1.0,3.0,73,0.00,,,0.00,5.000000,,2013-12-08 13:42:00,
2013-12-08 08:53:00,23.0,16.0,-100.00,NW,309,1.0,3.0,73,0.00,,,0.00,5.000000,,2013-12-08 13:53:00,
2013-12-08 09:02:00,23.0,16.0,-100.00,NW,309,1.0,3.0,73,0.00,,,0.00,5.000000,,2013-12-08 14:02:00,
2013-12-08 09:12:00,23.0,16.0,-100.00,NW,309,1.0,3.0,73,0.00,,,0.00,5.000000,,2013-12-08 14:12:00,
2013-12-08 09:42:00,25.0,18.0,-100.00,NNE,31,2.0,3.0,74,0.00,,,0.00,29.000000,,2013-12-08 14:42:00,
2013-12-08 09:52:00,25.0,18.0,-100.00,NNE,31,2.0,3.0,74,0.00,,,0.00,29.000000,,2013-12-08 14:52:00,
2013-12-08 10:02:00,25.0,18.0,-100.00,NNE,31,2.0,3.0,74,0.00,,,0.00,29.000000,,2013-12-08 15:02:00,
2013-12-08 10:12:00,25.0,18.0,-100.00,NNE,31,2.0,3.0,74,0.00,,,0.00,29.000000,,2013-12-08 15:12:00,
2013-12-08 10:43:00,23.0,20.0,-100.00,East,81,3.0,5.0,87,0.00,,,0.00,24.000000,,2013-12-08 15:43:00,
2013-12-08 10:54:00,23.0,20.0,-100.00,East,81,3.0,5.0,87,0.00,,,0.00,24.000000,,2013-12-08 15:54:00,
2013-12-08 11:04:00,23.0,20.0,-100.00,East,81,3.0,5.0,87,0.00,,,0.00,24.000000,,2013-12-08 16:04:00,
2013-12-08 11:13:00,23.0,20.0,-100.00,East,81,3.0,5.0,87,0.00,,,0.00,24.000000,,2013-12-08 16:13:00,
2013-12-08 11:43:00,22.0,20.0,-100.00,ESE,114,3.0,5.0,93,0.00,,,0.00,12.000000,,2013-12-08 16:43:00,
2013-12-08 11:53:00,22.0,20.0,-100.00,ESE,114,3.0,5.0,93,0.00,,,0.00,12.000000,,2013-12-08 16:53:00,
2013-12-08 12:02:00,22.0,20.0,-100.00,ESE,114,3.0,5.0,93,0.00,,,0.00,12.000000,,2013-12-08 17:02:00,
2013-12-08 12:12:00,22.0,20.0,-100.00,ESE,114,3.0,5.0,93,0.00,,,0.00,12.000000,,2013-12-08 17:12:00,
2013-12-08 12:43:00,23.0,21.0,-100.00,East,84,2.0,5.0,91,0.00,,,0.00,9.000000,,2013-12-08 17:43:00,
2013-12-08 12:52:00,23.0,21.0,-100.00,East,84,2.0,5.0,91,0.00,,,0.00,9.000000,,2013-12-08 17:52:00,
2013-12-08 13:02:00,23.0,21.0,-100.00,East,84,2.0,5.0,91,0.00,,,0.00,9.000000,,2013-12-08 18:02:00,
2013-12-08 13:12:00,23.0,21.0,-100.00,East,84,2.0,5.0,91,0.00,,,0.00,9.000000,,2013-12-08 18:12:00,
2013-12-08 13:42:00,23.0,22.0,-100.00,East,84,2.0,5.0,94,0.00,,,0.00,7.000000,,2013-12-08 18:42:00,
2013-12-08 13:52:00,23.0,22.0,-100.00,East,84,2.0,5.0,94,0.00,,,0.00,7.000000,,2013-12-08 18:52:00,
2013-12-08 14:02:00,23.0,22.0,-100.00,East,84,2.0,5.0,94,0.00,,,0.00,7.000000,,2013-12-08 19:02:00,
2013-12-08 14:12:00,23.0,22.0,-100.00,East,84,2.0,5.0,94,0.00,,,0.00,7.000000,,2013-12-08 19:12:00,
2013-12-08 14:42:00,23.0,22.0,-100.00,NNE,29,2.0,6.0,94,0.00,,,0.00,5.000000,,2013-12-08 19:42:00,
2013-12-08 14:52:00,23.0,22.0,-100.00,NNE,29,2.0,6.0,94,0.00,,,0.00,5.000000,,2013-12-08 19:52:00,
2013-12-08 15:02:00,23.0,22.0,-100.00,NNE,29,2.0,6.0,94,0.00,,,0.00,5.000000,,2013-12-08 20:02:00,
2013-12-08 15:11:00,23.0,22.0,-100.00,NNE,29,2.0,6.0,94,0.00,,,0.00,5.000000,,2013-12-08 20:11:00,
2013-12-08 15:42:00,23.0,21.0,-100.00,ENE,76,3.0,7.0,91,0.00,,,0.00,5.000000,,2013-12-08 20:42:00,
2013-12-08 15:53:00,23.0,21.0,-100.00,ENE,76,3.0,7.0,91,0.00,,,0.00,5.000000,,2013-12-08 20:53:00,
2013-12-08 16:02:00,23.0,21.0,-100.00,ENE,76,3.0,7.0,91,0.00,,,0.00,5.000000,,2013-12-08 21:02:00,
2013-12-08 16:12:00,23.0,21.0,-100.00,ENE,76,3.0,7.0,91,0.00,,,0.00,5.000000,,2013-12-08 21:12:00,
2013-12-08 16:43:00,23.0,21.0,-100.00,East,86,2.0,6.0,92,0.00,,,0.00,3.000000,,2013-12-08 21:43:00,
2013-12-08 16:53:00,23.0,21.0,-100.00,East,86,2.0,6.0,92,0.00,,,0.00,3.000000,,2013-12-08 21:53:00,
2013-12-08 17:03:00,23.0,21.0,-100.00,East,86,2.0,6.0,92,0.00,,,0.00,3.000000,,2013-12-08 22:03:00,
2013-12-08 17:13:00,23.0,21.0,-100.00,East,86,2.0,6.0,92,0.00,,,0.00,3.000000,,2013-12-08 22:13:00,
2013-12-08 17:43:00,23.0,21.0,-100.00,NW,315,3.0,7.0,93,0.00,,,0.00,0.000000,,2013-12-08 22:43:00,
2013-12-08 17:53:00,23.0,21.0,-100.00,NW,315,3.0,7.0,93,0.00,,,0.00,0.000000,,2013-12-08 22:53:00,
2013-12-08 18:03:00,23.0,21.0,-100.00,NW,315,3.0,7.0,93,0.00,,,0.00,0.000000,,2013-12-08 23:03:00,
2013-12-08 18:12:00,23.0,21.0,-100.00,NW,315,3.0,7.0,93,0.00,,,0.00,0.000000,,2013-12-08 23:12:00,
2013-12-08 18:42:00,23.0,22.0,-100.00,East,94,3.0,6.0,94,0.00,,,0.00,0.000000,,2013-12-08 23:42:00,
2013-12-08 18:53:00,23.0,22.0,-100.00,East,94,3.0,6.0,94,0.00,,,0.00,0.000000,,2013-12-08 23:53:00,
2013-12-08 19:02:00,23.0,22.0,-100.00,East,94,3.0,6.0,94,0.00,,,0.00,0.000000,,2013-12-09 00:02:00,
2013-12-08 19:12:00,23.0,22.0,-100.00,East,94,3.0,6.0,94,0.00,,,0.00,0.000000,,2013-12-09 00:12:00,
2013-12-08 19:42:00,23.0,23.0,-100.00,NNE,33,2.0,6.0,98,0.00,,,0.00,0.000000,,2013-12-09 00:42:00,
2013-12-08 19:52:00,23.0,23.0,-100.00,NNE,33,2.0,6.0,98,0.00,,,0.00,0.000000,,2013-12-09 00:52:00,
2013-12-08 20:02:00,23.0,23.0,-100.00,NNE,33,2.0,6.0,98,0.00,,,0.00,0.000000,,2013-12-09 01:02:00,
2013-12-08 20:11:00,23.0,23.0,-100.00,NNE,33,2.0,6.0,98,0.00,,,0.00,0.000000,,2013-12-09 01:11:00,
2013-12-08 20:42:00,24.0,24.0,-100.00,SSE,165,3.0,5.0,100,0.00,,,0.00,0.000000,,2013-12-09 01:42:00,
2013-12-08 20:52:00,24.0,24.0,-100.00,SSE,165,3.0,5.0,100,0.00,,,0.00,0.000000,,2013-12-09 01:52:00,
2013-12-08 21:02:00,24.0,24.0,-100.00,SSE,165,3.0,5.0,100,0.00,,,0.00,0.000000,,2013-12-09 02:02:00,
2013-12-08 21:11:00,24.0,24.0,-100.00,SSE,165,3.0,5.0,100,0.00,,,0.00,0.000000,,2013-12-09 02:11:00,
2013-12-08 21:42:00,25.0,25.0,-100.00,SSE,160,3.0,6.0,100,0.00,,,0.00,0.000000,,2013-12-09 02:42:00,
2013-12-08 21:53:00,25.0,25.0,-100.00,SSE,160,3.0,6.0,100,0.00,,,0.00,0.000000,,2013-12-09 02:53:00,
2013-12-08 22:02:00,25.0,25.0,-100.00,SSE,160,3.0,6.0,100,0.00,,,0.00,0.000000,,2013-12-09 03:02:00,
2013-12-08 22:12:00,25.0,25.0,-100.00,SSE,160,3.0,6.0,100,0.00,,,0.00,0.000000,,2013-12-09 03:12:00,
2013-12-08 22:43:00,25.0,25.0,-100.00,ESE,123,3.0,7.0,99,0.00,,,0.00,0.000000,,2013-12-09 03:43:00,
2013-12-08 22:54:00,25.0,25.0,-100.00,ESE,123,3.0,7.0,99,0.00,,,0.00,0.000000,,2013-12-09 03:54:00,
2013-12-08 23:03:00,25.0,25.0,-100.00,ESE,123,3.0,7.0,99,0.00,,,0.00,0.000000,,2013-12-09 04:03:00,
2013-12-08 23:13:00,25.0,25.0,-100.00,ESE,123,3.0,7.0,99,0.00,,,0.00,0.000000,,2013-12-09 04:13:00,
2013-12-08 23:43:00,25.0,25.0,-100.00,SE,134,4.0,9.0,100,0.00,,,0.00,0.000000,,2013-12-09 04:43:00,
2013-12-08 23:53:00,25.0,25.0,-100.00,SE,134,4.0,9.0,100,0.00,,,0.00,0.000000,,2013-12-09 04:53:00,